Weather in Doolan

Uzbekistan     40°37′53″N   72°24′38″E
В апреле 2022 года жителям России запретили посещать сайт meteo.paraplan.net по решению Генеральной прокуратуры. Аудитория сайта уменьшилась в 10 раз. Владельцы сайта не видят смысла в поддержке погодного сервера в таких условиях. Сайт будет закрыт в октябре.
temp.,
°C
wind,
m/s
gust,
m/s
humid.,
%
clouds,
%
prec.,
mm/h
press.,
hPa
HPBL,
m
29 september, thu
thu2923:00+17ene00315 0.0 101311
02:00+16e33334 0.0 101229
05:00+15e2236100 0.0 101313
08:00+19nne232697 0.0 1013305
11:00+25nnw321743 0.0 10121024
14:00+28wnw341561 0.0 10091587
17:00+26nw1117100 0.0 100930
20:00+20ese2223100 0.0 101011
30 september, fri
fri3023:00+18ese2227100 0.0 101013
02:00+18ese112899 0.0 101011
05:00+18se0128100 0.0 101011
08:00+21ese1124100 0.0 1012136
11:00+25sw2318100 0.0 10111091
14:00+28wsw5615100 0.0 10091462
17:00+25wsw2217100 0.0 101031
20:00+20ssw222351 0.0 101217
1 october, sat
sat123:00+19ene2224100 0.0 101216
02:00+18se2226100 0.0 101216
05:00+19e2223100 0.0 101318
08:00+21ene2326100 0.0 1014270
11:00+24e5428100 0.0 10141536
14:00+26ne342457 0.0 10122463
17:00+25nw2324100 0.0 1012173
20:00+21nnw122999 0.0 101540
2 october, sun
sun223:00+19ene223226 0.0 101512
02:00+15e335210 0.0 101532
05:00+15e115972 0.0 101511
08:00+18se11455 0.0 1016228
11:00+24nw22275 0.0 10141118
14:00+27wnw43205 0.0 10111584
17:00+26wsw232176 0.0 101070
20:00+19w11305 0.0 101211
3 october, mon
mon323:00+16s11350 0.0 101211
02:00+15sse11385 0.0 101211
05:00+14sse113588 0.0 101211
08:00+18sse1225100 0.0 1013235
11:00+23wsw4318100 0.0 1012940
14:00+23w6620100 0.0 10121357
17:00+21wnw2329100 0.0 1014147
20:00+17ese334371 0.1 101636